| time (UTC) | temp F | wind direction | speed MPH | gust MPH | rain 1hr in | rain 24hr in | rain mn in | humidity % | barometer mb |
| 20260904141007 | 62 | 247 | 15.0 | 20.0 | 0.20 | 0.00 | 0.00 | 93 | 1009.8 |
| 20260904135506 | 62 | 243 | 13.0 | 20.0 | 0.14 | 0.00 | 0.00 | 93 | 1010.0 |
| 20260904134005 | 62 | 245 | 11.0 | 20.0 | 0.07 | 0.00 | 0.00 | 93 | 1009.7 |
| 20260904132505 | 62 | 245 | 11.0 | 20.0 | 0.08 | 0.00 | 0.00 | 93 | 1009.6 |
| 20260904131004 | 62 | 261 | 8.0 | 15.0 | 0.16 | 0.00 | 0.00 | 94 | 1009.8 |
| 20260904125505 | 62 | 266 | 8.0 | 15.0 | 0.08 | 0.00 | 0.00 | 93 | 1009.7 |
| 20260904124003 | 62 | 267 | 8.0 | 15.0 | 0.03 | 0.00 | 0.00 | 92 | 1009.7 |
| 20260904122503 | 64 | 275 | 8.0 | 15.0 | 0.01 | 0.00 | 0.00 | 90 | 1009.5 |
| 20260904121002 | 64 | 277 | 8.0 | 20.0 | 0.04 | 0.00 | 0.00 | 90 | 1009.3 |
| 20260904115502 | 64 | 275 | 11.0 | 20.0 | 0.09 | 0.00 | 0.00 | 88 | 1009.5 |
| 20260904114001 | 66 | 274 | 15.0 | 29.0 | 0.29 | 0.00 | 0.00 | 91 | 1009.1 |
| 20260904112502 | 68 | 240 | 17.0 | 33.0 | 0.05 | 0.00 | 0.00 | 87 | 1008.8 |
| 20260904111000 | 69 | 232 | 22.0 | 33.0 | 0.00 | 0.00 | 0.00 | 80 | 1008.6 |
| 20260904105501 | 69 | 224 | 20.0 | 31.0 | 0.00 | 0.00 | 0.00 | 80 | 1008.6 |
| 20260904104000 | 69 | 227 | 15.0 | 24.0 | 0.00 | 0.00 | 0.00 | 85 | 1008.8 |
| 20260904102500 | 68 | 225 | 15.0 | 24.0 | 0.00 | 0.00 | 0.00 | 88 | 1008.8 |
| 20260904100959 | 66 | 230 | 15.0 | 24.0 | 0.02 | 0.00 | 0.00 | 91 | 1009.1 |
| 20260904095459 | 66 | 228 | 15.0 | 24.0 | 0.03 | 0.00 | 0.00 | 90 | 1009.2 |
| 20260904093958 | 66 | 228 | 15.0 | 24.0 | 0.03 | 0.00 | 0.00 | 90 | 1009.2 |
| 20260904092459 | 68 | 227 | 13.0 | 22.0 | 0.01 | 0.00 | 0.00 | 86 | 1009.0 |
| 20260904090958 | 68 | 236 | 17.0 | 26.0 | 0.00 | 0.00 | 0.00 | 83 | 1009.2 |
| 20260904085458 | 68 | 225 | 17.0 | 29.0 | 0.00 | 0.00 | 0.00 | 80 | 1009.0 |
| 20260904083957 | 68 | 222 | 17.0 | 29.0 | 0.00 | 0.00 | 0.00 | 81 | 1009.0 |
| 20260904082457 | 69 | 225 | 17.0 | 29.0 | 0.00 | 0.00 | 0.00 | 76 | 1009.4 |
| 20260904080957 | 69 | 227 | 17.0 | 26.0 | 0.00 | 0.00 | 0.00 | 76 | 1009.2 |
| 20260904075456 | 69 | 226 | 15.0 | 26.0 | 0.00 | 0.00 | 0.00 | 76 | 1009.4 |
| 20260904073955 | 68 | 216 | 15.0 | 24.0 | 0.00 | 0.00 | 0.00 | 77 | 1009.6 |
| 20260904072455 | 68 | 219 | 15.0 | 24.0 | 0.00 | 0.00 | 0.00 | 77 | 1009.6 |
| 20260904070955 | 68 | 228 | 17.0 | 26.0 | 0.00 | 0.00 | 0.00 | 77 | 1010.0 |
| 20260904065455 | 68 | 226 | 15.0 | 26.0 | 0.00 | 0.00 | 0.00 | 78 | 1010.2 |
| 20260904063954 | 68 | 222 | 13.0 | 20.0 | 0.00 | 0.00 | 0.00 | 79 | 1010.2 |
| 20260904062453 | 68 | 226 | 15.0 | 24.0 | 0.00 | 0.00 | 0.00 | 77 | 1010.2 |
| 20260904060953 | 68 | 222 | 15.0 | 24.0 | 0.00 | 0.00 | 0.00 | 78 | 1010.4 |
| 20260904055453 | 68 | 225 | 17.0 | 24.0 | 0.00 | 0.00 | 0.00 | 79 | 1010.5 |
| 20260904053952 | 68 | 224 | 15.0 | 26.0 | 0.00 | 0.00 | 0.00 | 80 | 1010.7 |
| 20260904052452 | 68 | 222 | 15.0 | 26.0 | 0.00 | 0.00 | 0.00 | 80 | 1010.9 |
| 20260904050952 | 68 | 225 | 13.0 | 22.0 | 0.00 | 0.00 | 0.00 | 82 | 1011.0 |
| 20260904045452 | 66 | 220 | 13.0 | 22.0 | 0.00 | 0.00 | 0.00 | 84 | 1011.2 |
| 20260904043951 | 66 | 220 | 13.0 | 22.0 | 0.00 | 0.00 | 0.00 | 84 | 1011.2 |
| 20260904042452 | 68 | 220 | 11.0 | 17.0 | 0.00 | 0.00 | 0.00 | 84 | 1011.6 |
| 20260904040951 | 68 | 221 | 11.0 | 17.0 | 0.00 | 0.00 | 0.00 | 84 | 1011.6 |
| 20260904035451 | 68 | 221 | 11.0 | 17.0 | 0.00 | 0.00 | 0.00 | 84 | 1011.8 |
| 20260904033950 | 68 | 219 | 11.0 | 17.0 | 0.00 | 0.00 | 0.00 | 85 | 1012.0 |
| 20260904032450 | 66 | 221 | 11.0 | 17.0 | 0.00 | 0.00 | 0.00 | 85 | 1012.2 |
| 20260904030949 | 68 | 219 | 11.0 | 15.0 | 0.00 | 0.00 | 0.00 | 85 | 1012.2 |
| 20260904025449 | 66 | 220 | 8.0 | 15.0 | 0.00 | 0.00 | 0.00 | 86 | 1012.6 |
| 20260904023949 | 66 | 215 | 11.0 | 17.0 | 0.00 | 0.00 | 0.00 | 88 | 1012.8 |
| 20260904022449 | 66 | 212 | 11.0 | 17.0 | 0.00 | 0.00 | 0.00 | 88 | 1012.8 |
| 20260904020948 | 66 | 211 | 11.0 | 15.0 | 0.00 | 0.00 | 0.00 | 88 | 1013.0 |
| 20260904015448 | 66 | 212 | 8.0 | 17.0 | 0.00 | 0.00 | 0.00 | 88 | 1013.2 |
| 20260904013948 | 66 | 215 | 11.0 | 17.0 | 0.00 | 0.00 | 0.00 | 87 | 1013.4 |
| 20260904012449 | 66 | 215 | 8.0 | 15.0 | 0.00 | 0.00 | 0.00 | 88 | 1013.6 |
| 20260904010948 | 66 | 217 | 8.0 | 13.0 | 0.00 | 0.00 | 0.00 | 89 | 1013.8 |
| 20260904005448 | 66 | 218 | 8.0 | 17.0 | 0.00 | 0.00 | 0.00 | 89 | 1013.8 |
| 20260904003948 | 64 | 219 | 8.0 | 17.0 | 0.00 | 0.00 | 0.00 | 89 | 1013.9 |
| 20260904002447 | 64 | 212 | 8.0 | 11.0 | 0.00 | 0.00 | 0.00 | 89 | 1014.1 |
| 20260904000946 | 64 | 211 | 8.0 | 11.0 | 0.00 | 0.00 | 0.00 | 88 | 1014.4 |
| 20260903235447 | 64 | 211 | 6.0 | 11.0 | 0.00 | 0.00 | 0.00 | 88 | 1014.7 |
| 20260903233945 | 64 | 211 | 6.0 | 11.0 | 0.00 | 0.00 | 0.00 | 86 | 1014.9 |
| 20260903232445 | 64 | 209 | 6.0 | 11.0 | 0.00 | 0.00 | 0.00 | 85 | 1014.9 |
| 20260903230945 | 64 | 206 | 6.0 | 11.0 | 0.00 | 0.00 | 0.00 | 84 | 1015.0 |
| 20260903225445 | 64 | 205 | 6.0 | 11.0 | 0.00 | 0.00 | 0.00 | 85 | 1015.2 |
| 20260903223943 | 64 | 204 | 6.0 | 8.0 | 0.00 | 0.00 | 0.00 | 83 | 1015.3 |
| 20260903222444 | 64 | 207 | 4.0 | 6.0 | 0.00 | 0.00 | 0.00 | 85 | 1015.6 |
| 20260903220942 | 64 | 205 | 6.0 | 11.0 | 0.00 | 0.00 | 0.00 | 83 | 1015.5 |
| 20260903215443 | 64 | 209 | 6.0 | 11.0 | 0.01 | 0.00 | 0.00 | 83 | 1015.8 |
| 20260903213942 | 64 | 214 | 6.0 | 8.0 | 0.00 | 0.00 | 0.00 | 81 | 1015.9 |
| 20260903212442 | 64 | 221 | 6.0 | 11.0 | 0.00 | 0.00 | 0.00 | 80 | 1016.0 |
| 20260903210942 | 66 | 220 | 6.0 | 11.0 | 0.00 | 0.00 | 0.00 | 78 | 1016.0 |
| 20260903205442 | 64 | 218 | 6.0 | 11.0 | 0.00 | 0.00 | 0.00 | 79 | 1016.0 |
| 20260903203942 | 66 | 219 | 6.0 | 11.0 | 0.00 | 0.00 | 0.00 | 77 | 1016.3 |
| 20260903202442 | 66 | 217 | 6.0 | 11.0 | 0.00 | 0.00 | 0.00 | 76 | 1016.2 |
| 20260903200942 | 64 | 225 | 6.0 | 8.0 | 0.00 | 0.00 | 0.00 | 76 | 1016.4 |
| 20260903195442 | 64 | 220 | 4.0 | 8.0 | 0.00 | 0.00 | 0.00 | 75 | 1016.3 |
| 20260903193940 | 66 | 217 | 4.0 | 8.0 | 0.00 | 0.00 | 0.00 | 73 | 1016.4 |
| 20260903192441 | 66 | 226 | 6.0 | 11.0 | 0.00 | 0.00 | 0.00 | 72 | 1016.3 |
| 20260903190939 | 68 | 248 | 8.0 | 13.0 | 0.00 | 0.00 | 0.00 | 68 | 1016.3 |
| 20260903185440 | 68 | 244 | 8.0 | 13.0 | 0.00 | 0.00 | 0.00 | 68 | 1016.3 |
| 20260903183939 | 68 | 237 | 8.0 | 13.0 | 0.00 | 0.00 | 0.00 | 67 | 1016.1 |
| 20260903182438 | 68 | 260 | 6.0 | 11.0 | 0.00 | 0.00 | 0.00 | 67 | 1016.3 |
| 20260903180937 | 68 | 264 | 6.0 | 11.0 | 0.00 | 0.00 | 0.00 | 69 | 1016.3 |
| 20260903175437 | 69 | 267 | 8.0 | 15.0 | 0.00 | 0.00 | 0.00 | 66 | 1016.2 |
| 20260903173936 | 69 | 262 | 11.0 | 15.0 | 0.00 | 0.00 | 0.00 | 65 | 1015.5 |
| 20260903172435 | 69 | 268 | 11.0 | 17.0 | 0.00 | 0.00 | 0.00 | 62 | 1015.6 |
| 20260903170935 | 71 | 266 | 11.0 | 17.0 | 0.00 | 0.00 | 0.00 | 61 | 1015.6 |
| 20260903165434 | 71 | 266 | 13.0 | 24.0 | 0.00 | 0.00 | 0.00 | 60 | 1015.9 |
| 20260903163933 | 71 | 265 | 13.0 | 17.0 | 0.00 | 0.00 | 0.00 | 60 | 1015.7 |
| 20260903162434 | 71 | 268 | 13.0 | 20.0 | 0.00 | 0.00 | 0.00 | 61 | 1015.8 |
| 20260903160933 | 71 | 268 | 11.0 | 20.0 | 0.00 | 0.00 | 0.00 | 61 | 1015.8 |
| 20260903155433 | 71 | 284 | 11.0 | 17.0 | 0.00 | 0.00 | 0.00 | 63 | 1015.6 |
| 20260903153932 | 71 | 271 | 13.0 | 22.0 | 0.00 | 0.00 | 0.00 | 60 | 1015.6 |
| 20260903152432 | 71 | 278 | 11.0 | 20.0 | 0.00 | 0.00 | 0.00 | 60 | 1015.6 |
| 20260903150931 | 71 | 267 | 15.0 | 26.0 | 0.00 | 0.00 | 0.00 | 63 | 1015.5 |
| 20260903145430 | 71 | 267 | 15.0 | 26.0 | 0.00 | 0.00 | 0.00 | 63 | 1015.5 |
| 20260903143930 | 71 | 254 | 15.0 | 24.0 | 0.00 | 0.00 | 0.00 | 63 | 1015.5 |
| 20260903142429 | 73 | 250 | 13.0 | 22.0 | 0.00 | 0.00 | 0.00 | 62 | 1015.4 |